| time (UTC) | temp F | wind direction | speed knots | gust knots | rain 1hr in | rain 24hr in | rain mn in | humidity % | barometer mb |
| 20260906233644 | 80 | 203 | 5.2 | 8.7 | 0.00 | 0.00 | 0.00 | 30 | 1013.6 |
| 20260906232614 | 80 | 140 | 4.3 | 8.7 | 0.00 | 0.00 | 0.00 | 30 | 1013.6 |
| 20260906231626 | 80 | 213 | 4.3 | 13.0 | 0.00 | 0.00 | 0.00 | 30 | 1013.5 |
| 20260906230621 | 80 | 207 | 8.7 | 12.2 | 0.00 | 0.00 | 0.00 | 29 | 1013.9 |
| 20260906225644 | 81 | 249 | 6.1 | 12.2 | 0.00 | 0.00 | 0.00 | 29 | 1014.0 |
| 20260906224615 | 80 | 198 | 7.8 | 16.5 | 0.00 | 0.00 | 0.00 | 29 | 1014.1 |
| 20260906223626 | 81 | 216 | 7.8 | 12.2 | 0.00 | 0.00 | 0.00 | 28 | 1014.1 |
| 20260906222622 | 81 | 196 | 9.6 | 14.8 | 0.00 | 0.00 | 0.00 | 28 | 1014.2 |
| 20260906221612 | 81 | 173 | 7.0 | 15.6 | 0.00 | 0.00 | 0.00 | 28 | 1014.2 |
| 20260906220623 | 82 | 281 | 6.1 | 16.5 | 0.00 | 0.00 | 0.00 | 28 | 1014.3 |
| 20260906215647 | 81 | 228 | 8.7 | 15.6 | 0.00 | 0.00 | 0.00 | 28 | 1014.2 |
| 20260906214621 | 82 | 212 | 9.6 | 17.4 | 0.00 | 0.00 | 0.00 | 29 | 1014.4 |
| 20260906213612 | 81 | 207 | 11.3 | 20.0 | 0.00 | 0.00 | 0.00 | 28 | 1014.2 |
| 20260906212623 | 81 | 257 | 9.6 | 14.8 | 0.00 | 0.00 | 0.00 | 29 | 1014.2 |
| 20260906211618 | 81 | 193 | 6.1 | 19.1 | 0.00 | 0.00 | 0.00 | 28 | 1014.4 |
| 20260906210628 | 81 | 202 | 12.2 | 17.4 | 0.00 | 0.00 | 0.00 | 29 | 1014.4 |
| 20260906205630 | 81 | 244 | 13.0 | 20.9 | 0.00 | 0.00 | 0.00 | 29 | 1014.5 |
| 20260906204621 | 82 | 252 | 13.0 | 20.0 | 0.00 | 0.00 | 0.00 | 28 | 1014.5 |
| 20260906203615 | 82 | 154 | 14.8 | 21.7 | 0.00 | 0.00 | 0.00 | 27 | 1014.7 |
| 20260906202625 | 82 | 189 | 14.8 | 21.7 | 0.00 | 0.00 | 0.00 | 27 | 1014.6 |
| 20260906201614 | 82 | 185 | 9.6 | 19.1 | 0.00 | 0.00 | 0.00 | 26 | 1014.9 |
| 20260906200624 | 81 | 212 | 8.7 | 17.4 | 0.00 | 0.00 | 0.00 | 27 | 1015.2 |
| 20260906195612 | 80 | 214 | 9.6 | 20.0 | 0.00 | 0.00 | 0.00 | 28 | 1015.4 |
| 20260906194623 | 80 | 209 | 11.3 | 19.1 | 0.00 | 0.00 | 0.00 | 27 | 1015.5 |
| 20260906193634 | 80 | 248 | 12.2 | 17.4 | 0.00 | 0.00 | 0.00 | 27 | 1015.8 |
| 20260906192624 | 80 | 219 | 9.6 | 19.1 | 0.00 | 0.00 | 0.00 | 27 | 1015.5 |
| 20260906191619 | 80 | 213 | 13.0 | 20.9 | 0.00 | 0.00 | 0.00 | 27 | 1015.5 |
| 20260906190630 | 80 | 209 | 7.0 | 15.6 | 0.00 | 0.00 | 0.00 | 27 | 1015.7 |
| 20260906185634 | 81 | 209 | 10.4 | 22.6 | 0.00 | 0.00 | 0.00 | 27 | 1015.7 |
| 20260906184646 | 80 | 210 | 12.2 | 20.0 | 0.00 | 0.00 | 0.00 | 26 | 1015.9 |
| 20260906183621 | 79 | 175 | 12.2 | 21.7 | 0.00 | 0.00 | 0.00 | 27 | 1016.0 |
| 20260906182613 | 79 | 265 | 12.2 | 17.4 | 0.00 | 0.00 | 0.00 | 27 | 1015.9 |
| 20260906181623 | 79 | 159 | 13.0 | 18.2 | 0.00 | 0.00 | 0.00 | 27 | 1016.3 |
| 20260906180623 | 79 | 242 | 12.2 | 18.2 | 0.00 | 0.00 | 0.00 | 27 | 1016.3 |
| 20260906175626 | 79 | 244 | 8.7 | 22.6 | 0.00 | 0.00 | 0.00 | 28 | 1016.6 |
| 20260906174620 | 79 | 207 | 13.0 | 21.7 | 0.00 | 0.00 | 0.00 | 27 | 1016.8 |
| 20260906173631 | 78 | 252 | 13.0 | 22.6 | 0.00 | 0.00 | 0.00 | 26 | 1016.9 |
| 20260906172621 | 78 | 206 | 19.1 | 22.6 | 0.00 | 0.00 | 0.00 | 27 | 1017.3 |
| 20260906171614 | 78 | 200 | 13.0 | 20.0 | 0.00 | 0.00 | 0.00 | 25 | 1017.3 |
| 20260906170624 | 78 | 189 | 10.4 | 21.7 | 0.00 | 0.00 | 0.00 | 27 | 1017.5 |
| 20260906165625 | 78 | 221 | 13.9 | 25.2 | 0.00 | 0.00 | 0.00 | 26 | 1017.3 |
| 20260906164636 | 77 | 173 | 11.3 | 19.1 | 0.00 | 0.00 | 0.00 | 27 | 1017.3 |
| 20260906163630 | 77 | 210 | 11.3 | 17.4 | 0.00 | 0.00 | 0.00 | 28 | 1017.3 |
| 20260906162620 | 77 | 205 | 14.8 | 20.9 | 0.00 | 0.00 | 0.00 | 28 | 1017.3 |
| 20260906161631 | 77 | 190 | 8.7 | 21.7 | 0.00 | 0.00 | 0.00 | 29 | 1017.3 |
| 20260906160622 | 77 | 216 | 14.8 | 20.9 | 0.00 | 0.00 | 0.00 | 29 | 1017.4 |
| 20260906155629 | 76 | 204 | 13.9 | 19.1 | 0.00 | 0.00 | 0.00 | 30 | 1017.5 |
| 20260906154621 | 76 | 178 | 11.3 | 18.2 | 0.00 | 0.00 | 0.00 | 29 | 1017.3 |
| 20260906153613 | 76 | 211 | 11.3 | 17.4 | 0.00 | 0.00 | 0.00 | 29 | 1017.4 |
| 20260906152624 | 76 | 174 | 13.9 | 19.1 | 0.00 | 0.00 | 0.00 | 29 | 1017.4 |
| 20260906151619 | 76 | 221 | 11.3 | 21.7 | 0.00 | 0.00 | 0.00 | 29 | 1017.5 |
| 20260906150630 | 74 | 178 | 8.7 | 15.6 | 0.00 | 0.00 | 0.00 | 32 | 1017.3 |
| 20260906145614 | 67 | 9 | 2.6 | 4.3 | 0.00 | 0.00 | 0.00 | 45 | 1017.5 |
| 20260906144629 | 65 | 5 | 0.9 | 3.5 | 0.00 | 0.00 | 0.00 | 47 | 1017.3 |
| 20260906143620 | 64 | 350 | 1.7 | 4.3 | 0.00 | 0.00 | 0.00 | 46 | 1017.4 |
| 20260906142631 | 63 | 285 | 0.0 | 2.6 | 0.00 | 0.00 | 0.00 | 45 | 1017.3 |
| 20260906141622 | 61 | 279 | 2.6 | 3.5 | 0.00 | 0.00 | 0.00 | 46 | 1017.2 |
| 20260906140637 | 61 | 319 | 0.9 | 2.6 | 0.00 | 0.00 | 0.00 | 44 | 1017.2 |
| 20260906135619 | 62 | 293 | 1.7 | 2.6 | 0.00 | 0.00 | 0.00 | 42 | 1017.0 |
| 20260906134629 | 65 | 340 | 0.9 | 5.2 | 0.00 | 0.00 | 0.00 | 39 | 1016.9 |
| 20260906133619 | 63 | 184 | 0.9 | 3.5 | 0.00 | 0.00 | 0.00 | 39 | 1016.9 |
| 20260906132653 | 60 | 129 | 0.0 | 2.6 | 0.00 | 0.00 | 0.00 | 43 | 1016.8 |
| 20260906131644 | 60 | 299 | 0.0 | 3.5 | 0.00 | 0.00 | 0.00 | 43 | 1016.7 |
| 20260906130613 | 61 | 293 | 0.0 | 2.6 | 0.00 | 0.00 | 0.00 | 41 | 1016.6 |
| 20260906125616 | 66 | 329 | 1.7 | 6.1 | 0.00 | 0.00 | 0.00 | 36 | 1016.6 |
| 20260906124631 | 69 | 207 | 5.2 | 10.4 | 0.00 | 0.00 | 0.00 | 30 | 1016.6 |
| 20260906123643 | 69 | 194 | 3.5 | 8.7 | 0.00 | 0.00 | 0.00 | 30 | 1016.5 |
| 20260906122614 | 69 | 207 | 6.1 | 9.6 | 0.00 | 0.00 | 0.00 | 30 | 1016.4 |
| 20260906121624 | 67 | 167 | 5.2 | 9.6 | 0.00 | 0.00 | 0.00 | 32 | 1016.4 |
| 20260906120617 | 61 | 226 | 0.9 | 2.6 | 0.00 | 0.00 | 0.00 | 39 | 1016.6 |
| 20260906115625 | 62 | 75 | 0.9 | 2.6 | 0.00 | 0.00 | 0.00 | 39 | 1016.6 |
| 20260906114616 | 62 | 302 | 0.9 | 2.6 | 0.00 | 0.00 | 0.00 | 39 | 1016.4 |
| 20260906113628 | 61 | 168 | 0.9 | 2.6 | 0.00 | 0.00 | 0.00 | 40 | 1016.6 |
| 20260906112640 | 61 | 244 | 0.9 | 3.5 | 0.00 | 0.00 | 0.00 | 40 | 1016.5 |
| 20260906111614 | 62 | 336 | 0.0 | 1.7 | 0.00 | 0.00 | 0.00 | 39 | 1016.6 |
| 20260906110626 | 62 | 311 | 0.9 | 2.6 | 0.00 | 0.00 | 0.00 | 39 | 1016.5 |
| 20260906105629 | 61 | 292 | 0.0 | 2.6 | 0.00 | 0.00 | 0.00 | 40 | 1016.6 |
| 20260906104623 | 62 | 306 | 0.9 | 4.3 | 0.00 | 0.00 | 0.00 | 39 | 1016.5 |
| 20260906103615 | 67 | 317 | 2.6 | 5.2 | 0.00 | 0.00 | 0.00 | 33 | 1016.4 |
| 20260906102626 | 72 | 204 | 1.7 | 8.7 | 0.00 | 0.00 | 0.00 | 25 | 1016.3 |
| 20260906101637 | 73 | 169 | 4.3 | 7.0 | 0.00 | 0.00 | 0.00 | 24 | 1016.3 |
| 20260906100612 | 73 | 207 | 2.6 | 7.0 | 0.00 | 0.00 | 0.00 | 24 | 1016.3 |
| 20260906095615 | 73 | 178 | 4.3 | 8.7 | 0.00 | 0.00 | 0.00 | 24 | 1016.2 |
| 20260906094626 | 73 | 180 | 3.5 | 8.7 | 0.00 | 0.00 | 0.00 | 24 | 1016.2 |
| 20260906093615 | 73 | 183 | 4.3 | 7.0 | 0.00 | 0.00 | 0.00 | 25 | 1016.3 |
| 20260906092629 | 72 | 191 | 4.3 | 7.8 | 0.00 | 0.00 | 0.00 | 25 | 1016.2 |
| 20260906091619 | 71 | 157 | 4.3 | 9.6 | 0.00 | 0.00 | 0.00 | 25 | 1016.0 |
| 20260906090628 | 71 | 209 | 7.0 | 9.6 | 0.00 | 0.00 | 0.00 | 25 | 1016.0 |
| 20260906085651 | 71 | 163 | 4.3 | 8.7 | 0.00 | 0.00 | 0.00 | 26 | 1016.0 |
| 20260906084645 | 70 | 186 | 7.8 | 9.6 | 0.00 | 0.00 | 0.00 | 26 | 1015.8 |
| 20260906083635 | 72 | 207 | 5.2 | 8.7 | 0.00 | 0.00 | 0.00 | 24 | 1015.9 |
| 20260906082623 | 74 | 180 | 5.2 | 7.8 | 0.00 | 0.00 | 0.00 | 23 | 1015.9 |
| 20260906081614 | 75 | 183 | 5.2 | 7.8 | 0.00 | 0.00 | 0.00 | 21 | 1015.9 |
| 20260906080629 | 75 | 165 | 4.3 | 8.7 | 0.00 | 0.00 | 0.00 | 21 | 1016.0 |
| 20260906075631 | 75 | 145 | 6.1 | 8.7 | 0.00 | 0.00 | 0.00 | 21 | 1016.0 |
| 20260906074640 | 76 | 202 | 6.1 | 10.4 | 0.00 | 0.00 | 0.00 | 21 | 1016.0 |
| 20260906073630 | 75 | 163 | 5.2 | 8.7 | 0.00 | 0.00 | 0.00 | 21 | 1015.9 |
| 20260906072623 | 75 | 163 | 4.3 | 8.7 | 0.00 | 0.00 | 0.00 | 21 | 1015.9 |
| 20260906071614 | 76 | 185 | 4.3 | 9.6 | 0.00 | 0.00 | 0.00 | 21 | 1015.9 |
| 20260906070624 | 76 | 171 | 4.3 | 10.4 | 0.00 | 0.00 | 0.00 | 20 | 1016.0 |
| 20260906065628 | 75 | 187 | 5.2 | 8.7 | 0.00 | 0.00 | 0.00 | 21 | 1015.9 |
| 20260906064623 | 75 | 207 | 3.5 | 7.8 | 0.00 | 0.00 | 0.00 | 21 | 1015.8 |
| 20260906063614 | 75 | 161 | 4.3 | 6.1 | 0.00 | 0.00 | 0.00 | 21 | 1015.9 |
| 20260906062624 | 75 | 169 | 3.5 | 5.2 | 0.00 | 0.00 | 0.00 | 22 | 1015.7 |
| 20260906061653 | 74 | 154 | 3.5 | 6.1 | 0.00 | 0.00 | 0.00 | 23 | 1015.7 |
| 20260906060630 | 73 | 194 | 3.5 | 5.2 | 0.00 | 0.00 | 0.00 | 25 | 1015.7 |
| 20260906055617 | 70 | 190 | 2.6 | 6.1 | 0.00 | 0.00 | 0.00 | 27 | 1015.7 |
| 20260906054646 | 67 | 186 | 1.7 | 6.1 | 0.00 | 0.00 | 0.00 | 33 | 1015.6 |
| 20260906053638 | 67 | 214 | 0.0 | 4.3 | 0.00 | 0.00 | 0.00 | 36 | 1015.6 |
| 20260906052627 | 67 | 267 | 0.9 | 2.6 | 0.00 | 0.00 | 0.00 | 34 | 1015.6 |
| 20260906051617 | 67 | 263 | 1.7 | 8.7 | 0.00 | 0.00 | 0.00 | 34 | 1015.8 |
| 20260906050630 | 70 | 210 | 7.0 | 10.4 | 0.00 | 0.00 | 0.00 | 30 | 1015.5 |
| 20260906045612 | 70 | 212 | 7.8 | 10.4 | 0.00 | 0.00 | 0.00 | 30 | 1015.6 |
| 20260906044622 | 70 | 205 | 6.1 | 9.6 | 0.00 | 0.00 | 0.00 | 30 | 1015.5 |
| 20260906043612 | 71 | 207 | 5.2 | 7.8 | 0.00 | 0.00 | 0.00 | 29 | 1015.6 |
| 20260906042625 | 70 | 188 | 5.2 | 7.0 | 0.00 | 0.00 | 0.00 | 29 | 1015.5 |
| 20260906041614 | 70 | 185 | 3.5 | 7.0 | 0.00 | 0.00 | 0.00 | 30 | 1015.5 |
| 20260906040624 | 70 | 171 | 4.3 | 7.0 | 0.00 | 0.00 | 0.00 | 29 | 1015.5 |
| 20260906035626 | 70 | 207 | 0.0 | 6.1 | 0.00 | 0.00 | 0.00 | 29 | 1015.4 |
| 20260906034620 | 70 | 170 | 4.3 | 7.0 | 0.00 | 0.00 | 0.00 | 29 | 1015.5 |
| 20260906033630 | 70 | 225 | 4.3 | 8.7 | 0.00 | 0.00 | 0.00 | 30 | 1015.3 |
| 20260906032620 | 70 | 178 | 7.0 | 9.6 | 0.00 | 0.00 | 0.00 | 30 | 1015.3 |
| 20260906031616 | 71 | 187 | 6.1 | 9.6 | 0.00 | 0.00 | 0.00 | 29 | 1015.4 |
| 20260906030624 | 71 | 175 | 5.2 | 7.8 | 0.00 | 0.00 | 0.00 | 29 | 1015.2 |
| 20260906025626 | 71 | 174 | 5.2 | 7.8 | 0.00 | 0.00 | 0.00 | 29 | 1015.2 |
| 20260906024616 | 70 | 171 | 5.2 | 7.8 | 0.00 | 0.00 | 0.00 | 30 | 1015.0 |
| 20260906023625 | 71 | 209 | 5.2 | 7.8 | 0.00 | 0.00 | 0.00 | 31 | 1015.1 |
| 20260906022620 | 70 | 168 | 4.3 | 7.0 | 0.00 | 0.00 | 0.00 | 31 | 1015.0 |
| 20260906021631 | 70 | 179 | 5.2 | 7.0 | 0.00 | 0.00 | 0.00 | 31 | 1015.0 |
| 20260906020621 | 73 | 94 | 4.3 | 7.0 | 0.00 | 0.00 | 0.00 | 30 | 1015.0 |
| 20260906015626 | 74 | 177 | 3.5 | 7.0 | 0.00 | 0.00 | 0.00 | 27 | 1014.9 |
| 20260906014617 | 74 | 189 | 5.2 | 7.8 | 0.00 | 0.00 | 0.00 | 27 | 1015.1 |
| 20260906013626 | 74 | 200 | 5.2 | 7.0 | 0.00 | 0.00 | 0.00 | 27 | 1015.1 |
| 20260906012638 | 75 | 188 | 4.3 | 7.0 | 0.00 | 0.00 | 0.00 | 27 | 1015.1 |
| 20260906011648 | 77 | 205 | 5.2 | 7.0 | 0.00 | 0.00 | 0.00 | 26 | 1015.2 |
| 20260906010621 | 81 | 188 | 3.5 | 4.3 | 0.00 | 0.00 | 0.00 | 22 | 1015.4 |
| 20260906005622 | 82 | 207 | 3.5 | 6.1 | 0.00 | 0.00 | 0.00 | 19 | 1015.4 |
| 20260906004612 | 83 | 216 | 4.3 | 8.7 | 0.00 | 0.00 | 0.00 | 18 | 1015.3 |
| 20260906003626 | 83 | 206 | 7.0 | 10.4 | 0.00 | 0.00 | 0.00 | 18 | 1015.3 |
| 20260906002614 | 83 | 222 | 5.2 | 8.7 | 0.00 | 0.00 | 0.00 | 19 | 1015.3 |
| 20260906001623 | 84 | 234 | 7.0 | 10.4 | 0.00 | 0.00 | 0.00 | 18 | 1015.4 |
| 20260906000616 | 84 | 236 | 7.0 | 12.2 | 0.00 | 0.00 | 0.00 | 18 | 1015.3 |
| 20260905235617 | 84 | 234 | 8.7 | 13.9 | 0.00 | 0.00 | 0.00 | 18 | 1015.3 |
| 20260905234631 | 84 | 240 | 6.1 | 11.3 | 0.00 | 0.00 | 0.00 | 17 | 1015.3 |